Simultaneous Nadir Overpasses (SNOs) Predictions

Prediction of SNOs between AQUA and METOP-B Satellite Orbit:

Table of predicted SNOs for the next 14.0 days since TLE Epoch: 2/9/2018
Index Date (AQUA) Time (AQUA) Lat,Lon (AQUA) SZA (AQUA ) Date (METOP-B) Time (METOP-B) Lat,Lon (METOP-B) SZA (METOP-B ) Distance(km) Time Diff (sec)
1 02/10/2018 01:49:19 -73.82, -33.04 91.67 02/10/2018 01:48:38 -73.80, -33.09 91.67 2.42 41
2 02/10/2018 02:38:48 73.89, 134.44 88.40 02/10/2018 02:39:16 73.89, 134.45 88.40 0.46 28
3 02/12/2018 21:23:35 -73.83, 33.36 92.58 02/12/2018 21:22:58 -73.85, 33.44 92.55 2.98 37
4 02/12/2018 22:13:04 73.91,-159.17 87.50 02/12/2018 22:13:37 73.89,-159.14 87.47 2.41 33
5 02/15/2018 16:57:52 -73.86, 99.75 93.51 02/15/2018 16:57:20 -73.85, 99.84 93.51 2.75 32
6 02/15/2018 17:47:20 73.89, -92.68 86.52 02/15/2018 17:47:59 73.89, -92.73 86.51 1.70 39
7 02/18/2018 12:32:08 -73.83, 166.25 94.52 02/18/2018 12:31:42 -73.85, 166.24 94.50 1.84 26
8 02/18/2018 13:21:37 73.92, -26.32 85.57 02/18/2018 13:22:20 73.94, -26.21 85.57 3.62 43
9 02/21/2018 08:06:24 -73.87,-127.39 95.50 02/21/2018 08:06:03 -73.84,-127.36 95.51 2.48 21
10 02/21/2018 08:55:52 73.91, 40.15 84.55 02/21/2018 08:56:41 73.93, 40.18 84.56 2.73 49




NCC Satellite Simultaneous Nadir Overpasses (SNOs) Prediction Service
